GW0484 Weather Reports


Display with metric or nautical units.
time (UTC)temp
F
wind
direction
speed
MPH
gust
MPH
rain 1hr
in
rain 24hr
in
rain mn
in
humidity
%
barometer
mb
20260508200714 75 304 15.0 16.0 0.00 0.00 0.00 34 1004.5
20260508200211 75 278 16.0 20.0 0.00 0.00 0.00 35 1004.2
20260508195707 74 275 15.0 17.0 0.00 0.00 0.00 35 1004.4
20260508195204 75 289 13.0 17.0 0.00 0.00 0.00 36 1004.7
20260508194700 75 237 15.0 18.0 0.00 0.00 0.00 37 1004.6
20260508194157 74 233 11.0 13.0 0.00 0.00 0.00 41 1004.8
20260508193654 74 251 8.0 9.0 0.00 0.00 0.00 39 1004.7
20260508193151 73 260 21.0 26.0 0.00 0.00 0.00 41 1004.6
20260508192648 73 282 5.0 8.0 0.00 0.00 0.00 41 1004.7
20260508192145 73 231 8.0 8.0 0.00 0.00 0.00 39 1005.2
20260508191642 72 250 5.0 6.0 0.00 0.00 0.00 39 1005.2
20260508191138 73 319 11.0 18.0 0.00 0.00 0.00 39 1005.2
20260508190636 72 258 4.0 5.0 0.00 0.00 0.00 42 1005.3
20260508190132 73 227 7.0 10.0 0.00 0.00 0.00 41 1005.4
20260508185629 72 243 11.0 13.0 0.00 0.00 0.00 42 1005.6
20260508185126 71 309 11.0 13.0 0.00 0.00 0.00 44 1005.7
20260508184624 71 237 5.0 7.0 0.00 0.00 0.00 48 1005.7
20260508184121 72 229 9.0 9.0 0.00 0.00 0.00 48 1005.7
20260508183617 71 243 8.0 9.0 0.00 0.00 0.00 50 1005.9
20260508183113 71 239 11.0 13.0 0.00 0.00 0.00 49 1005.9
20260508182609 70 288 9.0 10.0 0.00 0.00 0.00 52 1006.1
20260508182106 70 232 4.0 5.0 0.00 0.00 0.00 57 1006.5
20260508181601 70 183 5.0 6.0 0.00 0.00 0.00 57 1006.3
20260508181059 71 182 5.0 6.0 0.00 0.00 0.00 58 1006.4
20260508180555 69 234 6.0 7.0 0.00 0.00 0.00 59 1006.5
20260508180052 69 297 4.0 5.0 0.00 0.00 0.00 59 1006.6
20260508175548 69 246 5.0 6.0 0.00 0.00 0.00 60 1006.5
20260508175046 70 194 3.0 3.0 0.00 0.00 0.00 59 1006.6
20260508174543 69 316 0.0 0.0 0.00 0.00 0.00 60 1006.7
20260508174040 69 266 7.0 10.0 0.00 0.00 0.00 60 1006.7
20260508173537 70 333 1.0 1.0 0.00 0.00 0.00 60 1006.7
20260508173033 68 239 6.0 7.0 0.00 0.00 0.00 61 1006.8
20260508172530 68 334 5.0 7.0 0.00 0.00 0.00 60 1006.7
20260508172027 68 256 3.0 3.0 0.00 0.00 0.00 62 1006.9
20260508171523 67 313 3.0 5.0 0.00 0.00 0.00 63 1006.7
20260508171020 67 235 7.0 9.0 0.00 0.00 0.00 64 1007.0
20260508170517 67 229 5.0 6.0 0.00 0.00 0.00 64 1006.9
20260508170015 66 236 9.0 10.0 0.00 0.00 0.00 63 1007.1
20260508165512 66 221 7.0 8.0 0.00 0.00 0.00 65 1007.1
20260508165008 65 235 6.0 8.0 0.00 0.00 0.00 65 1007.5
20260508164505 64 247 8.0 9.0 0.00 0.00 0.00 67 1007.1
20260508164001 65 258 10.0 10.0 0.00 0.00 0.00 65 1007.1
20260508163459 65 310 6.0 7.0 0.00 0.00 0.00 66 1007.2
20260508162955 64 239 6.0 8.0 0.00 0.00 0.00 66 1007.2
20260508162453 64 229 4.0 5.0 0.00 0.00 0.00 68 1007.3
20260508161949 63 268 9.0 11.0 0.00 0.00 0.00 67 1007.7
20260508161447 64 238 7.0 8.0 0.00 0.00 0.00 68 1007.6
20260508160944 62 261 10.0 11.0 0.00 0.00 0.00 68 1007.6
20260508160443 63 267 8.0 10.0 0.00 0.00 0.00 69 1007.5
20260508155938 62 260 7.0 8.0 0.00 0.00 0.00 69 1007.3
20260508155436 62 280 4.0 5.0 0.00 0.00 0.00 69 1007.6
20260508154932 62 234 5.0 6.0 0.00 0.00 0.00 70 1007.6
20260508154430 61 283 3.0 5.0 0.00 0.00 0.00 71 1007.8
20260508153926 61 210 1.0 2.0 0.00 0.00 0.00 72 1007.8
20260508153424 60 215 0.0 0.0 0.00 0.00 0.00 74 1008.2
20260508152919 59 215 3.0 3.0 0.00 0.00 0.00 74 1008.0
20260508152416 58 223 3.0 5.0 0.00 0.00 0.00 76 1008.0
20260508151913 58 212 3.0 3.0 0.00 0.00 0.00 76 1008.0
20260508151410 57 224 3.0 3.0 0.00 0.00 0.00 77 1008.0
20260508150906 57 179 1.0 1.0 0.00 0.00 0.00 78 1008.2
20260508150403 55 194 3.0 3.0 0.00 0.00 0.00 80 1008.1
20260508145859 55 218 3.0 3.0 0.00 0.00 0.00 80 1008.2
20260508145355 55 184 2.0 2.0 0.00 0.00 0.00 81 1008.2
20260508144852 54 211 4.0 6.0 0.00 0.00 0.00 81 1008.3
20260508144350 54 183 2.0 2.0 0.00 0.00 0.00 82 1008.3
20260508143847 53 182 3.0 3.0 0.00 0.00 0.00 84 1008.2
20260508143344 53 180 3.0 3.0 0.00 0.00 0.00 85 1008.4
20260508142841 53 195 5.0 5.0 0.00 0.00 0.00 85 1008.4
20260508142338 52 198 3.0 3.0 0.00 0.00 0.00 86 1008.3
20260508141834 52 204 4.0 6.0 0.00 0.00 0.00 87 1008.8
20260508141331 51 211 4.0 5.0 0.00 0.00 0.00 88 1008.6
20260508140829 50 212 4.0 5.0 0.00 0.00 0.00 89 1008.8
20260508140326 50 180 3.0 3.0 0.00 0.00 0.00 90 1008.7
20260508135821 50 190 2.0 3.0 0.00 0.00 0.00 90 1008.9
20260508135318 49 162 1.0 2.0 0.00 0.00 0.00 91 1009.0
20260508134814 49 184 3.0 5.0 0.00 0.00 0.00 92 1008.9
20260508134311 48 201 3.0 3.0 0.00 0.00 0.00 93 1008.9
20260508133808 47 167 2.0 2.0 0.00 0.00 0.00 94 1008.9
20260508133306 47 159 2.0 2.0 0.00 0.00 0.00 92 1008.9
20260508132803 46 121 0.0 0.0 0.00 0.00 0.00 93 1009.0
20260508132300 45 116 0.0 0.0 0.00 0.00 0.00 94 1008.8
20260508131756 44 104 0.0 0.0 0.00 0.00 0.00 95 1008.7
20260508131252 43 130 0.0 0.0 0.00 0.00 0.00 95 1008.7
20260508130749 43 111 0.0 0.0 0.00 0.00 0.00 95 1008.4
20260508130246 42 114 0.0 0.0 0.00 0.00 0.00 96 1008.8
20260508125741 41 99 0.0 1.0 0.00 0.00 0.00 95 1008.7
20260508125238 41 92 2.0 2.0 0.00 0.00 0.00 92 1008.7
20260508124737 41 113 0.0 0.0 0.00 0.00 0.00 92 1008.9
20260508124233 40 111 0.0 0.0 0.00 0.00 0.00 94 1008.7
20260508123732 38 111 0.0 0.0 0.00 0.00 0.00 97 1008.6
20260508123229 38 129 0.0 0.0 0.00 0.00 0.00 99 1008.7
20260508122725 37 129 0.0 0.0 0.00 0.00 0.00 99 1008.6
20260508122222 37 131 0.0 0.0 0.00 0.00 0.00 99 1008.6
20260508121720 37 131 0.0 0.0 0.00 0.00 0.00 99 1008.7
20260508121218 36 120 0.0 0.0 0.00 0.00 0.00 99 1008.6
20260508120715 36 118 0.0 0.0 0.00 0.00 0.00 99 1008.7
20260508120213 36 102 0.0 0.0 0.00 0.00 0.00 99 1008.6
20260508115710 36 104 0.0 0.0 0.00 0.00 0.00 99 1008.7
20260508115207 36 99 0.0 0.0 0.00 0.00 0.00 98 1008.6
20260508114704 37 96 0.0 0.0 0.00 0.00 0.00 98 1008.6
20260508114201 36 105 1.0 1.0 0.00 0.00 0.00 97 1008.6
20260508113657 37 190 3.0 3.0 0.00 0.00 0.00 97 1008.4
20260508113156 37 106 0.0 1.0 0.00 0.00 0.00 97 1008.8
20260508112652 38 111 0.0 0.0 0.00 0.00 0.00 96 1008.3
20260508112149 38 191 3.0 3.0 0.00 0.00 0.00 96 1008.6
20260508111645 38 134 0.0 0.0 0.00 0.00 0.00 93 1008.7
20260508111143 39 130 0.0 0.0 0.00 0.00 0.00 92 1008.7
20260508110640 38 100 1.0 1.0 0.00 0.00 0.00 92 1008.7
20260508110137 39 114 0.0 0.0 0.00 0.00 0.00 90 1008.6
20260508105631 39 114 0.0 0.0 0.00 0.00 0.00 89 1008.3
20260508105129 40 109 0.0 0.0 0.00 0.00 0.00 88 1008.6
20260508104627 41 129 0.0 0.0 0.00 0.00 0.00 87 1008.6
20260508104123 40 163 2.0 2.0 0.00 0.00 0.00 89 1008.8
20260508103620 39 143 1.0 2.0 0.00 0.00 0.00 90 1008.9
20260508103117 40 100 0.0 0.0 0.00 0.00 0.00 91 1008.8
20260508102614 40 100 0.0 0.0 0.00 0.00 0.00 91 1008.6
20260508102112 41 101 0.0 0.0 0.00 0.00 0.00 92 1008.7
20260508101609 41 96 0.0 0.0 0.00 0.00 0.00 91 1008.8
20260508101107 42 95 0.0 0.0 0.00 0.00 0.00 91 1008.9
20260508100604 42 95 0.0 0.0 0.00 0.00 0.00 90 1008.9
20260508095558 44 95 0.0 0.0 0.00 0.00 0.00 87 1008.8
20260508095055 45 102 1.0 2.0 0.00 0.00 0.00 87 1008.7
20260508094552 44 129 0.0 0.0 0.00 0.00 0.00 89 1008.8
20260508094049 44 133 0.0 0.0 0.00 0.00 0.00 88 1008.6
20260508093546 45 118 0.0 0.0 0.00 0.00 0.00 87 1008.8
20260508093044 46 116 0.0 0.0 0.00 0.00 0.00 86 1008.7
20260508092541 46 82 1.0 2.0 0.00 0.00 0.00 85 1008.7
20260508092040 46 97 1.0 1.0 0.00 0.00 0.00 85 1008.9
20260508091536 46 88 2.0 2.0 0.00 0.00 0.00 85 1008.4
20260508091033 47 117 0.0 0.0 0.00 0.00 0.00 84 1008.6
20260508090532 48 114 1.0 1.0 0.00 0.00 0.00 84 1008.6
20260508090028 47 111 1.0 1.0 0.00 0.00 0.00 85 1008.6
20260508085524 48 107 0.0 0.0 0.00 0.00 0.00 84 1008.6
20260508085021 49 55 0.0 1.0 0.00 0.00 0.00 83 1008.7
20260508084518 49 277 3.0 5.0 0.00 0.00 0.00 82 1008.6
20260508084016 48 305 5.0 6.0 0.00 0.00 0.00 82 1008.6
20260508083513 49 268 5.0 6.0 0.00 0.00 0.00 82 1008.8
20260508083009 48 314 3.0 5.0 0.00 0.00 0.00 82 1008.4
20260508082505 48 311 2.0 3.0 0.00 0.00 0.00 81 1008.8
20260508082003 49 268 5.0 6.0 0.00 0.00 0.00 80 1008.7
20260508081500 48 313 6.0 6.0 0.00 0.00 0.00 81 1008.6
20260508080955 47 108 0.0 0.0 0.00 0.00 0.00 80 1008.3
20260508080454 46 77 2.0 2.0 0.00 0.00 0.00 80 1008.8
20260508075950 48 194 2.0 2.0 0.00 0.00 0.00 78 1008.9
20260508075447 46 157 2.0 2.0 0.00 0.00 0.00 81 1008.3
20260508074945 46 146 0.0 0.0 0.00 0.00 0.00 79 1008.9
20260508074443 45 129 0.0 0.0 0.00 0.00 0.00 80 1008.6
20260508073939 45 129 0.0 0.0 0.00 0.00 0.00 80 1008.7
20260508073437 46 144 0.0 0.0 0.00 0.00 0.00 80 1008.6
20260508072934 46 158 0.0 1.0 0.00 0.00 0.00 79 1009.0
20260508072430 47 197 3.0 3.0 0.00 0.00 0.00 78 1008.6
20260508071927 48 263 3.0 3.0 0.00 0.00 0.00 77 1009.0
20260508071425 48 242 3.0 3.0 0.00 0.00 0.00 77 1008.7
20260508070923 47 239 7.0 7.0 0.00 0.00 0.00 78 1008.7
20260508070420 46 108 0.0 0.0 0.00 0.00 0.00 81 1008.6
20260508065918 46 103 0.0 0.0 0.00 0.00 0.00 80 1008.6
20260508065416 48 72 1.0 1.0 0.00 0.00 0.00 77 1008.4
20260508064914 48 322 3.0 3.0 0.00 0.00 0.00 78 1008.7
20260508064411 47 313 5.0 6.0 0.00 0.00 0.00 79 1008.7
20260508063909 43 52 1.0 1.0 0.00 0.00 0.00 83 1008.7
20260508063406 44 119 0.0 0.0 0.00 0.00 0.00 83 1008.6
20260508062903 44 120 0.0 0.0 0.00 0.00 0.00 82 1008.3
20260508062401 45 122 0.0 0.0 0.00 0.00 0.00 81 1008.2
20260508061858 45 120 0.0 0.0 0.00 0.00 0.00 82 1008.4
20260508061355 45 127 0.0 0.0 0.00 0.00 0.00 80 1008.6
20260508060851 47 119 0.0 1.0 0.00 0.00 0.00 78 1008.3
20260508060349 46 141 1.0 2.0 0.00 0.00 0.00 80 1008.1
20260508055844 46 112 0.0 0.0 0.00 0.00 0.00 81 1008.2
20260508055342 47 98 0.0 0.0 0.00 0.00 0.00 80 1008.3
20260508054838 47 104 0.0 0.0 0.00 0.00 0.00 80 1008.1
20260508054336 47 114 0.0 0.0 0.00 0.00 0.00 80 1008.1
20260508053832 48 101 2.0 3.0 0.00 0.00 0.00 79 1008.3
20260508053330 48 104 0.0 0.0 0.00 0.00 0.00 78 1008.2
20260508052827 48 114 0.0 1.0 0.00 0.00 0.00 78 1008.1
20260508052324 48 95 0.0 0.0 0.00 0.00 0.00 79 1008.2
20260508051820 49 67 3.0 3.0 0.00 0.00 0.00 77 1008.4
20260508051316 51 123 0.0 0.0 0.00 0.00 0.00 74 1008.2
20260508050812 52 295 0.0 1.0 0.00 0.00 0.00 72 1008.1
20260508050310 53 283 6.0 7.0 0.00 0.00 0.00 70 1008.3
20260508045805 53 266 4.0 5.0 0.00 0.00 0.00 72 1008.1
20260508045306 53 229 4.0 5.0 0.00 0.00 0.00 73 1008.3
20260508044801 53 243 3.0 3.0 0.00 0.00 0.00 73 1008.2
20260508044257 54 265 4.0 5.0 0.00 0.00 0.00 72 1008.0
20260508043753 55 265 4.0 5.0 0.00 0.00 0.00 70 1007.9
20260508043251 55 270 5.0 6.0 0.00 0.00 0.00 70 1008.0
20260508042747 56 261 5.0 6.0 0.00 0.00 0.00 68 1007.9
20260508042245 56 261 5.0 6.0 0.00 0.00 0.00 67 1008.0
20260508041741 57 246 6.0 7.0 0.00 0.00 0.00 67 1008.0
20260508041238 58 277 7.0 8.0 0.00 0.00 0.00 65 1008.2
20260508040734 58 285 8.0 9.0 0.00 0.00 0.00 64 1008.1
20260508040232 59 246 8.0 9.0 0.00 0.00 0.00 63 1008.0
20260508035729 59 293 7.0 8.0 0.00 0.00 0.00 63 1008.2
20260508035226 58 286 6.0 7.0 0.00 0.00 0.00 64 1008.2
20260508034723 59 268 7.0 9.0 0.00 0.00 0.00 63 1008.1
20260508034220 59 238 5.0 6.0 0.00 0.00 0.00 60 1008.2
20260508033717 59 298 5.0 6.0 0.00 0.00 0.00 59 1008.2
20260508033216 59 284 4.0 6.0 0.00 0.00 0.00 59 1008.4
20260508032713 59 294 5.0 6.0 0.00 0.00 0.00 59 1008.0
20260508032209 60 245 7.0 8.0 0.00 0.00 0.00 58 1008.2
20260508031706 60 295 10.0 13.0 0.00 0.00 0.00 59 1007.8
20260508031202 59 287 8.0 11.0 0.00 0.00 0.00 61 1008.0
20260508030659 60 292 6.0 7.0 0.00 0.00 0.00 60 1008.0
20260508030157 61 257 7.0 8.0 0.00 0.00 0.00 59 1007.7
20260508025653 60 312 12.0 16.0 0.00 0.00 0.00 59 1007.7
20260508025150 59 304 4.0 5.0 0.00 0.00 0.00 59 1007.7
20260508024646 59 294 6.0 8.0 0.00 0.00 0.00 59 1007.7
20260508024143 59 263 4.0 5.0 0.00 0.00 0.00 59 1007.5
20260508023639 59 256 6.0 8.0 0.00 0.00 0.00 59 1007.5
20260508023137 58 248 5.0 5.0 0.00 0.00 0.00 58 1007.2
20260508022632 59 244 5.0 6.0 0.00 0.00 0.00 57 1007.0
20260508022130 60 230 4.0 5.0 0.00 0.00 0.00 56 1007.1
20260508021626 59 235 4.0 5.0 0.00 0.00 0.00 57 1007.0
20260508021121 61 229 3.0 3.0 0.00 0.00 0.00 56 1007.0
20260508020620 62 227 4.0 5.0 0.00 0.00 0.00 56 1007.1
20260508020117 62 199 3.0 3.0 0.00 0.00 0.00 55 1006.9
20260508015614 63 209 4.0 5.0 0.00 0.00 0.00 55 1006.9
20260508015111 64 246 4.0 5.0 0.00 0.00 0.00 54 1006.9
20260508014607 65 230 5.0 6.0 0.00 0.00 0.00 53 1007.0
20260508014104 66 231 5.0 7.0 0.00 0.00 0.00 53 1006.7
20260508013600 66 262 5.0 7.0 0.00 0.00 0.00 53 1006.6
20260508013057 66 272 5.0 6.0 0.00 0.00 0.00 53 1006.8
20260508012554 66 268 7.0 7.0 0.00 0.00 0.00 52 1006.9
20260508012052 66 280 7.0 7.0 0.00 0.00 0.00 52 1006.7
20260508011550 66 269 4.0 5.0 0.00 0.00 0.00 52 1006.8
20260508011047 66 277 6.0 7.0 0.00 0.00 0.00 52 1006.7
20260508010543 66 256 3.0 3.0 0.00 0.00 0.00 56 1006.6
20260508010041 66 112 0.0 0.0 0.00 0.00 0.00 58 1006.8
20260508005537 65 117 0.0 0.0 0.00 0.00 0.00 57 1006.9
20260508005034 63 121 0.0 0.0 0.00 0.00 0.00 61 1006.7
20260508004530 63 108 0.0 0.0 0.00 0.00 0.00 59 1007.2
20260508004027 63 99 1.0 1.0 0.00 0.00 0.00 58 1007.2
20260508003523 62 109 1.0 2.0 0.00 0.00 0.00 61 1007.5
20260508003021 66 295 15.0 17.0 0.00 0.00 0.00 61 1007.6
20260508002517 66 282 9.0 13.0 0.00 0.00 0.00 54 1007.0
20260508002015 66 270 13.0 15.0 0.00 0.00 0.00 54 1006.9
20260508001510 66 254 15.0 18.0 0.00 0.00 0.00 53 1006.8
20260508001007 66 241 11.0 14.0 0.00 0.00 0.00 54 1006.6
20260508000503 66 237 14.0 16.0 0.00 0.00 0.00 55 1006.7
20260508000000 67 258 20.0 23.0 0.00 0.00 0.00 56 1006.8
20260507235456 67 258 16.0 17.0 0.00 0.00 0.00 52 1006.8
20260507234954 68 250 16.0 16.0 0.00 0.00 0.00 52 1006.7
20260507234450 68 232 10.0 14.0 0.00 0.00 0.00 47 1006.5
20260507233949 68 235 11.0 11.0 0.00 0.00 0.00 48 1006.3
20260507233444 68 235 9.0 10.0 0.00 0.00 0.00 48 1006.6
20260507232942 68 230 8.0 10.0 0.00 0.00 0.00 48 1006.6
20260507232438 69 227 4.0 5.0 0.00 0.00 0.00 45 1006.5
20260507231936 70 266 6.0 7.0 0.00 0.00 0.00 46 1006.7
20260507231432 68 38 2.0 3.0 0.00 0.00 0.00 46 1006.7
20260507230929 68 166 3.0 5.0 0.00 0.00 0.00 48 1006.7
20260507230426 68 47 5.0 7.0 0.00 0.00 0.00 48 1006.8
20260507225926 67 206 3.0 3.0 0.00 0.00 0.00 50 1006.8
20260507225423 67 261 8.0 10.0 0.00 0.00 0.00 50 1006.6
20260507224919 68 208 6.0 7.0 0.00 0.00 0.00 48 1006.3
20260507224415 68 299 11.0 11.0 0.00 0.00 0.00 44 1006.5
20260507223912 68 255 12.0 14.0 0.00 0.00 0.00 44 1006.3
20260507223408 69 340 4.0 5.0 0.00 0.00 0.00 44 1006.5
20260507222905 69 297 9.0 10.0 0.00 0.00 0.00 44 1006.7
20260507222401 69 273 8.0 9.0 0.00 0.00 0.00 44 1006.6
20260507221859 69 304 11.0 13.0 0.00 0.00 0.00 44 1006.9
20260507221355 71 45 2.0 3.0 0.00 0.00 0.00 43 1006.8
20260507220851 69 327 8.0 9.0 0.00 0.00 0.00 44 1006.7
20260507220349 68 267 4.0 5.0 0.00 0.00 0.00 45 1006.9
20260507215845 69 152 2.0 2.0 0.00 0.00 0.00 45 1006.6
20260507215342 69 69 2.0 5.0 0.00 0.00 0.00 45 1006.9
20260507214839 69 303 5.0 9.0 0.00 0.00 0.00 45 1006.9
20260507214337 69 330 5.0 14.0 0.00 0.00 0.00 45 1006.8
20260507213832 69 306 9.0 10.0 0.00 0.00 0.00 45 1006.9
20260507213329 69 131 1.0 2.0 0.00 0.00 0.00 45 1007.0
20260507212826 69 326 7.0 9.0 0.00 0.00 0.00 44 1007.1
20260507212321 70 319 6.0 8.0 0.00 0.00 0.00 44 1006.9
20260507211818 69 301 3.0 3.0 0.00 0.00 0.00 44 1007.1
20260507211315 68 298 7.0 8.0 0.00 0.00 0.00 44 1007.1
20260507210812 68 129 1.0 2.0 0.00 0.00 0.00 46 1007.1
20260507210309 68 91 2.0 3.0 0.00 0.00 0.00 46 1007.1
20260507205805 68 21 5.0 7.0 0.00 0.00 0.00 46 1007.2
20260507205306 68 111 0.0 1.0 0.00 0.00 0.00 48 1007.3
20260507204758 68 356 5.0 8.0 0.00 0.00 0.00 45 1007.3
20260507204256 69 118 1.0 2.0 0.00 0.00 0.00 46 1007.1
20260507203754 69 148 0.0 2.0 0.00 0.00 0.00 45 1007.3
20260507203251 70 322 7.0 9.0 0.00 0.00 0.00 45 1007.2
20260507202748 69 285 11.0 13.0 0.00 0.00 0.00 46 1007.0
20260507202243 70 292 11.0 13.0 0.00 0.00 0.00 45 1007.2
20260507201738 69 336 8.0 10.0 0.00 0.00 0.00 46 1007.3
20260507201235 69 289 8.0 10.0 0.00 0.00 0.00 46 1007.0